User: anonymous   Login
Location: Griffin Ranch
(33.6186°N, 110.6622°W)
Time: 07:12:17
(UTC-07:00)
Language:

Cosmos 1812 - Orbit

View from above orbital plane
View from above orbital plane
View from above satellite
View from above satellite

Ground track
Ground track

The orbit data is extracted from the following two-line orbital elements,

1 17295U 87003A   15089.15227865  .00005729  00000-0  33577-3 0  9992
2 17295 082.5171 220.5775 0004039 059.9170 300.2460 15.11604039536442
Epoch (UTC): 30 March 2015 03:39:16
Eccentricity: 0.0004039
inclination: 82.5171°
perigee height: 528 km
apogee height: 534 km
right ascension of ascending node: 220.5775°
argument of perigee: 59.9170°
revolutions per day: 15.11604039
mean anomaly at epoch: 300.2460°
orbit number at epoch: 53644

The dashed part of the orbit path shows where the satellite is in the earth's shadow,  

DLR